CZ-6A DEB, 61474

Orbit data source: Space-Track

CZ-6A DEB, 61474 is space debris in LEO originally from a launch on Tue, 06 Aug 2024 UTC launched from the Taiyaun Space Center, China (TSC). Debris objects in space refer to the collection of defunct objects orbiting the Earth. Examples of debris include non-operational satellites, rocket bodies, and fragments generated from explosions, collisions, or faulty payload assembly.

Loading next visibility...
Identifier
61474, 2024-140AAG
Orbit
LEO
Last TLE update
1 day ago
Origin
Manufacturer
SAST
Mission
Spacecraft
Bus & Motor
Unknown
Mass
Unknown
Launch date (UTC)
2024-08-06 (11 months ago)
Launch vehicle
Unknown
Launch site
Taiyaun Space Center, China (TSC)
Object type
Payload
Rocket body
Debris
Shape & HBR
Unknown
Radar Cross Section
Small (<0.1 m²)

Expand to show TLE details & history

TLE from 1 day ago
0 CZ-6A DEB
1 61474U 24140AAG 25189.57221474  .00002086  00000-0  51477-3 0  9993
2 61474  88.8239 304.4586 0127886  56.0673 305.2613 14.46882453 44385
Epoch: 2025-07-08T13:43Z
TLE epoch observation values (Epoch: 2025-07-08T13:43:59.353Z)
Latitude
-0.00003°
Longitude
171.69602°
Altitude
687.191 km
Speed
7.54 km/s
True Right ascension
20h 17m 50s
True Declination
0° 00' 00"
Sunlit
Object was in full shadow at epoch
Visualization orbit readout
Latitude
28.08039°
Longitude
-9.08641°
Altitude
753.706 km
Speed
7.473 km/s
Apparent Right ascension
11h 37m 01s
Apparent Declination
-9° 04' 37"
Sunlit
Object is in daylight
Visualization observer readout
Local Sidereal Time
05:09:44
Azimuth
92.673° ESE
Elevation
-11.02°
Doppler factor
1
Orbital elements
Apogee altitude
823.701 km
Perigee altitude
641.824 km
Semi-major axis
7,110.899 km
Eccentricity
0.01279
Inclination
88.8239°
RAAN
304.4586°
Arg. of periapsis
56.0673°
True anomaly
Unknown
Mean anomaly
305.2613°
Eccentric anomaly
Unknown
Mean motion
3.61957 °/min
Orbital period
99.46 mins
BSTAR
0.00051477
Loading maneuver chart data...
Loading SW <> Apogee altitude chart data...
Loading historical data...
Loading historical data...
Loading historical data...
Loading historical data...
Loading historical data...
Loading historical data...
Loading historical data...

CZ-6A DEB Visibility forecast

Observer location: undefined°, undefined°

Span
Click to sort rows by Start time (UTC) header in descending order
Start Az.
Max El. time (UTC)
Max El. Az.
Max El.
End time (UTC)
End Az.
7 mins2025-07-09 20:11:40.910Z349.768° N2025-07-09 20:14:40.910Z261.67° W42.535°2025-07-09 20:18:40.910Z193.395° SSW
5 mins2025-07-10 07:22:40.910Z123.48° SE2025-07-10 07:24:40.910Z80.833° E26.489°2025-07-10 07:27:40.910Z27.653° NE
4 mins2025-07-10 09:02:40.910Z250.035° W2025-07-10 09:04:40.910Z286.925° WNW19.738°2025-07-10 09:06:40.910Z318.432° NNW
|